Regional Weather Roundup
Issued by NWS

Home | Current Version | Previous Version | Text Only | Print | Product List | Glossary On
Versions: 1 2 3 4 5 6 7 8 9 10 11 12 13 14 15 16 17 18 19 20 21 22 23 24 25 26 27 28 29 30 31 32 33 34 35 36 37 38 39 40 41 42 43 44 45 46 47 48 49 50
000
ASUS43 KDMX 240606
RWRIA

WEATHER ROUNDUP FOR IOWA
NATIONAL WEATHER SERVICE DES MOINES IA
100 AM CDT MON APR 24 2017

NOTE: "FAIR" INDICATES FEW OR NO CLOUDS BELOW 12,000 FEET WITH NO
SIGNIFICANT WEATHER AND/OR OBSTRUCTIONS TO VISIBILITY.

* - THESE STATIONS ARE NOT NWS STATIONS...THUS NOT UNDER NWS
QUALITY CONTROL.  THEY ALSO DO NOT REPORT WEATHER SUCH
AS PRECIPITATION OR FOG.

IAZ001>003-012>014-020>022-031>034-043>046-240700-
   NORTHWEST IOWA

CITY           SKY/WX    TMP DP  RH WIND       PRES   REMARKS
CARROLL *      PTCLDY    50  34  53 S10       29.89F
CHEROKEE *     CLOUDY    49  35  58 S9        29.86F
DENISON *      PTCLDY    55  32  41 S13       29.90R
LE MARS *      CLOUDY    54  30  40 S12       29.83F
ORANGE CITY *  PTCLDY    52  34  50 S10       29.82F
SHELDON *      PTCLDY    52  32  46 S14       29.81F
SIOUX CITY     CLOUDY    59  31  34 S18G26    29.84F
6HR MIN TEMP:  57; 6HR MAX TEMP:  71;

SPENCER        CLOUDY    51  33  50 MISG      29.85F
6HR MIN TEMP:  50; 6HR MAX TEMP:  68;

STORM LAKE *   CLOUDY    46  32  57 S9        29.88S
$$

IAZ055>058-069>071-079>083-090>094-240700-
   SOUTHWEST IOWA

CITY           SKY/WX    TMP DP  RH WIND       PRES   REMARKS
ATLANTIC *     CLOUDY    52  34  50 S9        29.91S
AUDUBON *      CLOUDY    50  36  57 S5        29.92S
CLARINDA *     CLOUDY    46  37  71 S3        29.95F
COUNCIL BLFS * CLOUDY    54  36  50 S12       29.89S
CRESTON *      CLOUDY    48  34  57 S9        29.95S
HARLAN  *      PTCLDY    54  34  47 S8        29.93S
LAMONI         CLOUDY    54  32  43 S7        29.95F
6HR MIN TEMP:  51; 6HR MAX TEMP:  66;

RED OAK *      CLOUDY    48  36  61 S6        29.92S
SHENANDOAH *   CLOUDY    54  36  50 S12       29.93S
$$

IAZ047>049-059>061-072>074-084-240700-
   CENTRAL IOWA

CITY           SKY/WX    TMP DP  RH WIND       PRES   REMARKS
AMES           CLEAR     47  36  65 SE6       29.93S
6HR MIN TEMP:  46; 6HR MAX TEMP:  67;

ANKENY *       CLOUDY    50  36  57 CALM      29.95F
BOONE *        PTCLDY    48  36  61 S8        29.92S
CHARITON *     CLOUDY    50  36  57 SE7       29.95F
DES MOINES     CLOUDY    53  34  48 S8        29.94F
6HR MIN TEMP:  53; 6HR MAX TEMP:  68;

GRINNELL*      CLEAR     50  32  51 SE7       29.98S HAZE
KNOXVILLE *    CLEAR     54  32  43 S6        29.95S
MARSHALLTOWN   CLEAR     53  33  46 SE7       29.94F
6HR MIN TEMP:  49; 6HR MAX TEMP:  67;

NEWTON *       CLEAR     50  32  50 S8        29.95S
PELLA *        CLEAR     51  35  53 SE3       29.97F
PERRY *          N/A     50  32  50 SE8       29.92S
$$

IAZ004>006-015-016-023>025-035-036-240700-
   NORTH CENTRAL IOWA

CITY           SKY/WX    TMP DP  RH WIND       PRES   REMARKS
ALGONA *       PTCLDY    55  34  44 S14       29.89S
CLARION *      CLEAR     52  34  50 S12       29.91S
ESTHERVILLE    PTCLDY    47  35  63 S10       29.86F
6HR MIN TEMP:  47; 6HR MAX TEMP:  66;

FORT DODGE *   CLOUDY    55  30  38 S9        29.91S
MASON CITY     CLEAR     44  34  67 S8        29.93S
6HR MIN TEMP:  43; 6HR MAX TEMP:  66;

FOREST CITY *    N/A     46  34  61 S10       29.91S
WEBSTER CITY * CLOUDY    52  34  50 S10       29.90S
IOWA FALLS *     N/A     52  35  53 S9        29.94S
$$

IAZ007>011-017>019-026>030-037>042-050>054-066-240700-
   NORTHEAST IOWA

CITY           SKY/WX    TMP DP  RH WIND       PRES   REMARKS
CEDAR RAPIDS   CLEAR     49  34  56 SE5       29.96F
6HR MIN TEMP:  49; 6HR MAX TEMP:  68;

CHARLES CITY * CLEAR     52  32  46 S10       29.94F
CLINTON *      CLOUDY    50  36  58 SE7       30.00F
DECORAH *      PTCLDY    52  34  50 S6        29.94F
DUBUQUE        CLEAR     50  33  52 S6        29.99F
6HR MIN TEMP:  50; 6HR MAX TEMP:  66;

MONTICELLO *   CLOUDY    46  36  66 CALM      29.98S
WATERLOO       CLEAR     53  32  44 S8        29.95S
6HR MIN TEMP:  53; 6HR MAX TEMP:  68;

$$

IAZ064-065-067-068-078-240700-
   EAST CENTRAL IOWA

CITY           SKY/WX    TMP DP  RH WIND       PRES   REMARKS
DAVENPORT      CLOUDY    49  33  54 SE5       29.99F
6HR MIN TEMP:  49; 6HR MAX TEMP:  69;

IOWA CITY      PTCLDY    48  38  68 CALM      29.99F
6HR MIN TEMP:  48; 6HR MAX TEMP:  69;

MT. PLEASANT * CLEAR     49  32  51 SE5       29.99S
MUSCATINE *    CLEAR     46  37  71 CALM      29.99F
QUAD CITIES    CLOUDY    45  37  73 CALM      29.99F
6HR MIN TEMP:  45; 6HR MAX TEMP:  69;

$$

IAZ062-063-075>077-085>089-095>099-240700-
   SOUTHEAST IOWA

CITY           SKY/WX    TMP DP  RH WIND       PRES   REMARKS
BURLINGTON     CLEAR     49  34  56 CALM      29.98F
6HR MIN TEMP:  48; 6HR MAX TEMP:  68;

FAIRFIELD *    CLEAR     52  30  43 SE5       29.97F
FORT MADISON * CLEAR     54  28  37 SE3       30.00S
KEOKUK *       CLEAR     50  37  62 CALM      29.98S
OSKALOOSA *      N/A     47  32  55 S7        29.98S
CENTERVILLE *    N/A     50  32  50 CALM      29.98F
OTTUMWA        CLEAR     50  31  48 S8        29.97F
6HR MIN TEMP:  49; 6HR MAX TEMP:  68;

WASHINGTON *   CLEAR     50  32  50 CALM      29.99F
$$

ABBREVIATIONS USED IN REMARKS
   TC - TEMPERATURES IN CELSIUS
  WCI - WIND CHILL INDEX
   HX - HEAT INDEX
  VSB - VISIBILITY
$$




USA.gov is the U.S. government's official web portal to all federal, state and local government web resources and services.